Location: Vaughan
(31.9146°N, 97.1736°W)
Time: 15:20:43
(UTC+00:00)

Cosmos 1898 Rocket - Pass Details

Date: 10 December 2025
Orbit: 749 x 779 km, 74.0° (Epoch: 19 January)

Event Time Altitude Azimuth Distance (km) Brightness Sun altitude
Rises 00:33:30 0° 183° (S) 3,180 7.0 -14.3°
Reaches altitude 10° 00:35:54 10° 179° (S) 2,258 6.1 -14.8°
Maximum altitude 00:40:52 54° 103° (ESE) 909 3.6 -15.8°
Enters shadow 00:44:29 18° 32° (NNE) 1,765 4.9 -16.5°
